Location: Tierz
(42.1336°N, 0.3549°W)
Time: 16:07:23
(UTC+00:00)

BREEZE-M R/B - Pass Details

Date: 29 October 2020
Orbit: 310 x 4523 km, 49.7° (Epoch: 23 November)

Event Time Altitude Azimuth Distance (km) Brightness Sun altitude
Rises 17:47:02 0° 295° (WNW) 2,381 7.1 -9.5°
Reaches altitude 10° 17:48:46 10° 306° (NW) 1,717 6.0 -9.9°
Maximum altitude 17:52:14 35° 15° (NNE) 1,148 4.2 -10.5°
Enters shadow 17:57:18 14° 76° (ENE) 2,711 5.7 -11.4°
